Regional Weather Roundup
Issued by NWS Lake Charles, LA

Current Version | Previous Version | Text Only | Print | Product List | Glossary On
Versions: 1 2 3 4 5 6 7 8 9 10 11 12 13 14 15 16 17 18 19 20 21 22 23 24 25 26 27
000
ASUS44 KLCH 240610
RWRLCH
REGIONAL WEATHER ROUNDUP
NATIONAL WEATHER SERVICE LAKE CHARLES LA
100 AM CDT SUN JUL 24 2016

Note: "fair" indicates few or no clouds below 12,000 feet with no
significant weather and/or obstructions to visibility.


ACROSS SOUTHEAST TEXAS

CITY           SKY/WX    TMP DP  RH WIND       PRES   REMARKS
BEAUMONT       PTCLDY    79  77  94 S5        29.94F
BEAUMONT CITY  FAIR      80  76  89 CALM      29.95F
ORANGE         PTCLDY    81  76  86 CALM      29.96F
JASPER         MOCLDY    80  74  81 S5        29.96F
$$

ACROSS CENTRAL LOUISIANA

CITY           SKY/WX    TMP DP  RH WIND       PRES   REMARKS
LEESVILLE      CLOUDY    82  76  83 S7        29.92F
FULLERTON      FAIR      81  76  84 CALM      29.91F
ALEXANDRIA INT CLOUDY    81  78  91 E5        29.91F
ESLER FIELD    PTCLDY    79  77  94 E3        29.94F
DERIDDER       FAIR      82  77  86 CALM      29.96F
OAKDALE        CLEAR     79  77  94 CALM      29.94F
OPELOUSAS      FAIR      79  76  90 SE5       29.95S
$$

ACROSS SOUTHWEST AND SOUTH CENTRAL LOUISIANA

CITY           SKY/WX    TMP DP  RH WIND       PRES   REMARKS
SULPHUR        CLEAR     82  78  88 S3        29.95F
LAKE CHARLES   CLEAR     80  77  90 S3        29.94F
CHENNAULT INT  CLEAR     80  76  89 CALM      29.94F
CAMERON PHI    CLEAR     86  77  74 S8        29.94F
DEQUINCY       FAIR      80  76  90 S3        29.94F
JENNINGS       FAIR      81  77  89 CALM      29.95S
LAFAYETTE      PTCLDY    82  77  84 SW5       29.95F
NEW IBERIA     PTCLDY    80  77  90 S3        29.96F
ABBEVILLE      FAIR      78  78  98 CALM      29.96S
PATTERSON      CLOUDY    79  78  97 S6        29.97F
SALT POINT       N/A     84  77  79 CALM      29.95F
$$

SELECTED SITES ACROSS THE REGION

CITY           SKY/WX    TMP DP  RH WIND       PRES   REMARKS
HOUSTON BUSH   PTCLDY    83  75  77 S3        29.95S
HOUSTON HOBBY  PTCLDY    81  76  84 S3        29.94S
GALVESTON      PTCLDY    84  78  82 S12       29.96F
COLLEGE STAT   CLEAR     84  75  74 S9        29.95S
CONROE         CLEAR     82  75  79 S7        29.95F
HUNTSVILLE     CLEAR     83  73  72 S8        29.94F
LUFKIN         CLEAR     81  74  79 S5        29.93S
SHREVEPORT     CLOUDY    79  77  94 CALM      29.93S
MONROE         CLOUDY    77  74  90 CALM      29.94F
NATCHEZ MS     PTCLDY    79  73  83 CALM      29.95F
BATON ROUGE    PTCLDY    78  74  87 CALM      29.96F
N.O. INTL ARPT MOCLDY    84  76  76 CALM      29.96F
SLIDELL        MOCLDY    78  77  96 CALM      29.96F
$$

MARINE REPORTS

STATION/POSITION TIME  SKY/WX   TEMP    WIND        PRES    VSBY
                                AIR SEA DIR/SP/G
                 (UTC)          (F)     (DEG/KT/KT) (MB)    (MI)
BUOY 30 S HIGH I 0550            86 89  180/ 12/ 14 1014.0F
WVE H/P(F/S)=  1/ 3

SEA RIM ST PARK  0600            85     180/ 10/ 11 1014.5F
PORT ARTHUR      0500               90  180/  3/  5 1014.6F
SABINE PASS N    0500            85 91  190/  6/  8 1015.8F
TEXAS POINT      NOT AVBL
CALCASIEU PASS   0500            87 89  210/  9/ 10 1013.8F
LK CHARLES BEACH 0500            83 89              1014.8F
MARSH ISLAND     0500            88                   N/A
FRESH WATER LOCK 0500            85 89  190/  3/  5 1015.6F
AMERADA PASS     0500            83 87   CALM  /  1 1014.9F
$$




USA.gov is the U.S. government's official web portal to all federal, state and local government web resources and services.